Location: Melizzano
(41.1500°N, 14.5000°E)
Time: 03:21:38
(UTC+00:00)

BREEZE M DEB (TANK) - Pass Details

Date: 11 May 2021
Orbit: 273 x 14491 km, 49.6° (Epoch: 13 June)

Event Time Altitude Azimuth Distance (km) Brightness Sun altitude
Rises 19:47:06 0° 290° (WNW) 4,695 8.3 -16.0°
Reaches altitude 10° 19:51:59 10° 303° (WNW) 2,421 6.8 -16.7°
Maximum altitude 19:55:43 23° 357° (N) 1,011 4.2 -17.2°
Enters shadow 19:57:28 12° 50° (NE) 1,168 3.9 -17.4°
